Weather History for Gainesville, GA

Change the Weather History Date:

Saturday, November 30, 2013

  Actual Average Record
Temperature  
Mean Temperature 42 °F 48 °F  
Max Temperature 49 °F 56 °F 76 °F (1970)
Min Temperature 34 °F 39 °F 16 °F (1955)
Degree Days  
Heating Degree Days 23 17  
Month to date heating degree days 482 378  
Since 1 July heating degree days 613 535  
Moisture  
Dew Point 22 °F    
Average Humidity 48    
Maximum Humidity 61    
Minimum Humidity 34    
Precipitation  
Precipitation 0.00 in 0.21 in 1.91 in (1985)
Month to date precipitation 3.05 4.47  
Snow  
Snow 0.00 in - - ()
Month to date snowfall 0.0  
Since 1 July snowfall 0.0  
Since 1 September snowfall 0.0  
Snow Depth 0.00 in    
Sea Level Pressure  
Sea Level Pressure 30.48 in    
Wind  
Wind Speed 8 mph (ENE)    
Max Wind Speed 17 mph    
Max Gust Speed 23 mph    
Visibility 10 miles    
Events      
T = Trace of Precipitation, MM = Missing Value Source: NWS Daily Summary

Daily Weather History Graph

Daily Weather History Graph

Search for Another Location

Airport:

Trip Planner

Search our weather history database for the weather conditions in past years. The results will help you decide how hot, cold, wet, or windy it might be!

Date:

Astronomy

Nov. 30, 2013 Rise Set
Actual Time 7:22 AM EST 5:25 PM EST
Civil Twilight 6:55 AM EST 5:52 PM EST
Nautical Twilight 6:24 AM EST 6:23 PM EST
Astronomical Twilight 5:53 AM EST 6:54 PM EST
Moon 4:38 AM EST (11/30) 3:44 PM EST (11/30)
Length of Visible Light 10h 57m
Length of Day
10h 02m
Waning Crescent, 7% of the Moon is Illuminated
Nov 30
Waning Crescent
Dec 2
New
Dec 9
First Quarter
Dec 17
Full
Dec 25
Last Quarter

Hourly Weather History & Observations

Time (EST) Temp. Windchill Dew Point Humidity Pressure Visibility Wind Dir Wind Speed Gust Speed Precip Events Conditions
12:53 AM 41.0 °F 34.7 °F 26.1 °F 55% 30.52 in 10.0 mi East 10.4 mph - N/A   Clear
1:53 AM 39.0 °F 33.4 °F 26.1 °F 60% 30.52 in 10.0 mi East 8.1 mph - N/A   Clear
2:53 AM 37.9 °F 32.1 °F 25.0 °F 60% 30.53 in 10.0 mi ENE 8.1 mph - N/A   Clear
3:53 AM 37.0 °F 29.8 °F 24.1 °F 59% 30.54 in 10.0 mi ENE 10.4 mph - N/A   Clear
4:53 AM 35.1 °F 27.4 °F 23.0 °F 61% 30.54 in 10.0 mi ENE 10.4 mph - N/A   Clear
5:53 AM 35.1 °F 27.9 °F 23.0 °F 61% 30.55 in 10.0 mi ENE 9.2 mph - N/A   Clear
6:53 AM 35.1 °F 26.4 °F 21.9 °F 59% 30.56 in 10.0 mi East 12.7 mph - N/A   Clear
7:53 AM 34.0 °F 25.5 °F 21.9 °F 61% 30.57 in 10.0 mi ENE 11.5 mph 18.4 mph N/A   Clear
8:53 AM 36.0 °F 28.0 °F 21.9 °F 57% 30.58 in 10.0 mi ENE 11.5 mph 20.7 mph N/A   Clear
9:53 AM 39.0 °F 30.6 °F 21.9 °F 50% 30.57 in 10.0 mi East 15.0 mph 21.9 mph N/A   Clear
10:53 AM 41.0 °F 32.5 °F 21.0 °F 45% 30.58 in 10.0 mi East 17.3 mph 21.9 mph N/A   Clear
11:53 AM 43.0 °F 36.4 °F 19.9 °F 40% 30.54 in 10.0 mi ENE 12.7 mph - N/A   Clear
12:53 PM 45.0 °F 40.1 °F 21.0 °F 39% 30.50 in 10.0 mi ESE 9.2 mph - N/A   Clear
1:53 PM 46.9 °F - 21.0 °F 36% 30.46 in 10.0 mi ENE 8.1 mph - N/A   Clear
2:53 PM 48.0 °F - 21.0 °F 34% 30.44 in 10.0 mi East 6.9 mph - N/A   Clear
3:53 PM 46.9 °F - 21.9 °F 37% 30.42 in 10.0 mi ENE 5.8 mph - N/A   Clear
4:53 PM 44.1 °F 42.5 °F 21.9 °F 42% 30.42 in 10.0 mi East 3.5 mph - N/A   Scattered Clouds
5:53 PM 44.1 °F 41.5 °F 21.9 °F 42% 30.41 in 10.0 mi East 4.6 mph - N/A   Mostly Cloudy
6:53 PM 41.0 °F 39.0 °F 23.0 °F 49% 30.41 in 10.0 mi ENE 3.5 mph - N/A   Scattered Clouds
7:53 PM 39.9 °F 36.7 °F 23.0 °F 51% 30.40 in 10.0 mi East 4.6 mph - N/A   Partly Cloudy
8:53 PM 42.1 °F 39.2 °F 21.9 °F 45% 30.40 in 10.0 mi ENE 4.6 mph - N/A   Overcast
9:53 PM 42.1 °F 39.2 °F 21.9 °F 45% 30.39 in 10.0 mi East 4.6 mph - N/A   Overcast
10:53 PM 41.0 °F 38.0 °F 21.9 °F 47% 30.38 in 10.0 mi ENE 4.6 mph - N/A   Overcast
11:53 PM 42.1 °F 38.4 °F 21.9 °F 45% 30.36 in 10.0 mi ENE 5.8 mph - N/A   Overcast